FW0958 Weather Reports


Display with metric or nautical units.
time (UTC)temp
F
wind
direction
speed
MPH
gust
MPH
rain 1hr
in
rain 24hr
in
rain mn
in
humidity
%
barometer
mb
20260502234650 74 310 3.0 11.0 0.00 0.00 0.00 67 1010.6
20260502234154 74 318 2.0 8.0 0.00 0.00 0.00 67 1010.6
20260502234149 74 332 2.0 8.0 0.00 0.00 0.00 66 1010.5
20260502233154 74 303 2.0 8.0 0.00 0.00 0.00 67 1010.7
20260502233149 74 303 2.0 8.0 0.00 0.00 0.00 67 1010.5
20260502232154 75 45 3.0 9.0 0.00 0.00 0.00 66 1010.8
20260502232148 74 24 2.0 9.0 0.00 0.00 0.00 67 1010.5
20260502231807 75 313 3.0 10.0 0.00 0.00 0.00 66 1010.7
20260502230646 75 347 3.0 10.0 0.00 0.00 0.00 66 1010.7
20260502230148 75 325 4.0 10.0 0.00 0.00 0.00 66 1010.8
20260502225648 75 292 4.0 10.0 0.00 0.00 0.00 66 1010.9
20260502225148 75 278 3.0 10.0 0.00 0.00 0.00 66 1011.0
20260502224648 76 347 3.0 9.0 0.00 0.00 0.00 66 1010.9
20260502224147 75 284 4.0 10.0 0.00 0.00 0.00 67 1011.0
20260502223647 76 333 3.0 10.0 0.00 0.00 0.00 66 1011.0
20260502223147 76 359 4.0 9.0 0.00 0.00 0.00 66 1011.0
20260502222646 76 308 4.0 10.0 0.00 0.00 0.00 65 1011.1
20260502222146 76 336 4.0 10.0 0.00 0.00 0.00 65 1011.2
20260502221648 77 318 4.0 10.0 0.00 0.00 0.00 66 1011.2
20260502221148 77 307 3.0 8.0 0.00 0.00 0.00 65 1011.3
20260502220647 77 15 3.0 10.0 0.00 0.00 0.00 65 1011.4
20260502220146 76 29 3.0 10.0 0.00 0.00 0.00 66 1011.4
20260502215652 76 299 4.0 12.0 0.00 0.00 0.00 67 1011.5
20260502215646 76 334 3.0 10.0 0.00 0.00 0.00 65 1011.5
20260502214648 76 324 4.0 12.0 0.00 0.00 0.00 67 1011.7
20260502214148 77 358 4.0 10.0 0.00 0.00 0.00 66 1011.8
20260502213645 76 326 5.0 11.0 0.00 0.00 0.00 67 1011.7
20260502213144 76 19 5.0 11.0 0.00 0.00 0.00 66 1011.8
20260502212646 76 296 5.0 11.0 0.00 0.00 0.00 67 1011.8
20260502212150 77 328 4.0 11.0 0.00 0.00 0.00 65 1011.8
20260502212144 76 280 4.0 11.0 0.00 0.00 0.00 66 1011.7
20260502211149 77 353 5.0 11.0 0.00 0.00 0.00 66 1011.8
20260502211144 77 336 4.0 11.0 0.00 0.00 0.00 66 1011.7
20260502210144 77 336 5.0 13.0 0.00 0.00 0.00 66 1011.6
20260502205645 77 34 6.0 13.0 0.00 0.00 0.00 66 1011.7
20260502205145 77 340 6.0 13.0 0.00 0.00 0.00 66 1011.5
20260502204646 77 338 6.0 13.0 0.00 0.00 0.00 66 1011.6
20260502204146 78 284 4.0 11.0 0.00 0.00 0.00 64 1011.8
20260502203651 78 234 4.0 9.0 0.00 0.00 0.00 66 1011.6
20260502203646 78 295 4.0 9.0 0.00 0.00 0.00 65 1011.6
20260502202750 76 307 4.0 8.0 0.00 0.00 0.00 67 1011.8
20260502202649 77 315 4.0 8.0 0.00 0.00 0.00 68 1011.7
20260502202644 76 326 4.0 9.0 0.00 0.00 0.00 67 1011.9
20260502201800 77 311 4.0 10.0 0.00 0.00 0.00 66 1011.9
20260502201141 77 342 4.0 11.0 0.00 0.00 0.00 67 1012.1
20260502200143 76 272 4.0 11.0 0.00 0.00 0.00 68 1012.3
20260502195641 76 276 3.0 9.0 0.00 0.00 0.00 69 1012.3
20260502195141 76 337 1.0 8.0 0.00 0.00 0.00 66 1012.3
20260502194641 75 274 1.0 4.0 0.00 0.00 0.00 69 1012.3
20260502194138 74 274 2.0 8.0 0.00 0.00 0.00 71 1012.4
20260502193638 76 306 4.0 8.0 0.00 0.00 0.00 68 1012.3
20260502193139 76 318 4.0 8.0 0.00 0.00 0.00 66 1012.7
20260502192637 76 348 3.0 6.0 0.00 0.00 0.00 68 1012.7
20260502192137 75 275 3.0 7.0 0.00 0.00 0.00 69 1012.9
20260502191636 74 313 3.0 7.0 0.00 0.00 0.00 69 1013.0
20260502191136 74 29 3.0 7.0 0.00 0.00 0.00 69 1012.9
20260502190636 73 301 3.0 7.0 0.00 0.00 0.00 71 1013.0
20260502190136 73 278 3.0 7.0 0.00 0.00 0.00 71 1013.0
20260502185641 71 245 2.0 5.0 0.00 0.00 0.00 74 1013.2
20260502185637 72 261 2.0 4.0 0.00 0.00 0.00 72 1012.9
20260502184637 71 278 3.0 6.0 0.00 0.00 0.00 75 1013.2
20260502184137 70 288 3.0 7.0 0.00 0.00 0.00 75 1013.2
20260502183634 69 291 3.0 7.0 0.00 0.00 0.00 77 1013.4
20260502183135 69 307 2.0 7.0 0.00 0.00 0.00 78 1013.4
20260502182633 68 6 1.0 4.0 0.00 0.00 0.00 79 1013.6
20260502182136 67 97 1.0 3.0 0.00 0.00 0.00 79 1013.7
20260502181635 67 97 1.0 3.0 0.00 0.00 0.00 80 1013.7
20260502181136 66 101 1.0 3.0 0.00 0.00 0.00 81 1013.7
20260502180633 66 135 0.0 3.0 0.00 0.00 0.00 82 1013.8
20260502180134 66 133 0.0 4.0 0.00 0.00 0.00 82 1013.7
20260502170132 63 230 0.0 0.0 0.00 0.00 0.00 85 1014.4
20260502164250 62 176 0.0 0.0 0.00 0.00 0.00 87 1014.4
20260502164137 62 176 0.0 0.0 0.00 0.00 0.00 87 1014.5
20260502164131 62 175 0.0 0.0 0.00 0.00 0.00 87 1014.5
20260502162631 62 167 0.0 0.0 0.00 0.00 0.00 87 1014.4
20260502162130 62 167 0.0 0.0 0.00 0.00 0.00 88 1014.6
20260502161629 62 167 0.0 0.0 0.00 0.00 0.00 88 1014.5
20260502161133 61 167 0.0 3.0 0.00 0.00 0.00 88 1014.4
20260502161129 62 167 0.0 2.0 0.00 0.00 0.00 88 1014.6
20260502160124 61 167 0.0 3.0 0.00 0.00 0.00 89 1014.6
20260502151626 60 169 0.0 1.0 0.00 0.00 0.00 90 1014.4
20260502151125 60 169 0.0 2.0 0.00 0.00 0.00 89 1014.4
20260502150625 60 169 0.0 2.0 0.00 0.00 0.00 90 1014.5
20260502150124 60 169 0.0 2.0 0.00 0.00 0.00 90 1014.4
20260502140119 60 139 0.0 3.0 0.00 0.00 0.00 89 1014.0
20260502130619 60 351 0.0 4.0 0.00 0.00 0.00 89 1013.7
20260502130123 60 340 0.0 3.0 0.00 0.00 0.00 89 1013.7
20260502130119 60 340 0.0 1.0 0.00 0.00 0.00 89 1013.6
20260502123623 60 347 0.0 0.0 0.00 0.00 0.00 89 1013.3
20260502123616 60 347 0.0 2.0 0.00 0.00 0.00 89 1013.7
20260502123116 60 346 0.0 2.0 0.00 0.00 0.00 89 1013.5
20260502122116 60 347 0.0 0.0 0.00 0.00 0.00 89 1013.4
20260502121621 61 347 0.0 0.0 0.00 0.00 0.00 89 1013.3
20260502121616 61 347 0.0 0.0 0.00 0.00 0.00 89 1013.3
20260502120616 61 347 0.0 0.0 0.00 0.00 0.00 89 1013.2
20260502120120 60 347 0.0 2.0 0.00 0.00 0.00 89 1013.1
20260502120116 60 347 0.0 2.0 0.00 0.00 0.00 89 1013.2
20260502115120 60 343 0.0 3.0 0.00 0.00 0.00 89 1013.2
20260502115115 60 343 0.0 2.0 0.00 0.00 0.00 89 1013.2
20260502114119 60 332 0.0 0.0 0.00 0.00 0.00 89 1013.2
20260502114113 60 340 0.0 3.0 0.00 0.00 0.00 89 1013.2
20260502113118 60 331 0.0 0.0 0.00 0.00 0.00 89 1013.2
20260502113113 60 331 0.0 0.0 0.00 0.00 0.00 89 1013.3
20260502112114 60 331 0.0 0.0 0.00 0.00 0.00 89 1013.2
20260502111614 60 331 0.0 1.0 0.00 0.00 0.00 89 1013.2
20260502111111 60 331 0.0 1.0 0.00 0.00 0.00 89 1013.2
20260502110612 60 343 0.0 0.0 0.00 0.00 0.00 89 1013.2
20260502110111 60 343 0.0 0.0 0.00 0.00 0.00 89 1013.1
20260502105612 60 343 0.0 2.0 0.00 0.00 0.00 88 1013.0
20260502105112 60 343 0.0 2.0 0.00 0.00 0.00 88 1013.0
20260502104612 60 343 0.0 3.0 0.00 0.00 0.00 88 1013.0
20260502104112 60 340 0.0 3.0 0.00 0.00 0.00 88 1013.1
20260502103611 60 341 0.0 2.0 0.00 0.00 0.00 88 1013.1
20260502103111 60 341 1.0 3.0 0.00 0.00 0.00 88 1013.0
20260502102610 60 3 1.0 5.0 0.00 0.00 0.00 88 1013.0
20260502102109 60 5 1.0 5.0 0.00 0.00 0.00 88 1012.9
20260502101615 61 149 0.0 0.0 0.00 0.00 0.00 88 1013.0
20260502101609 60 139 0.0 3.0 0.00 0.00 0.00 88 1012.9
20260502100610 61 147 0.0 0.0 0.00 0.00 0.00 88 1012.8
20260502100110 60 147 0.0 0.0 0.00 0.00 0.00 88 1012.8
20260502091108 61 148 0.0 1.0 0.00 0.00 0.00 87 1012.9
20260502090611 61 148 0.0 2.0 0.00 0.00 0.00 87 1012.8
20260502090607 61 148 0.0 2.0 0.00 0.00 0.00 87 1012.8
20260502080107 61 1 0.0 2.0 0.00 0.00 0.00 87 1013.5
20260502071107 61 2 0.0 0.0 0.00 0.00 0.00 87 1013.8
20260502070604 61 2 0.0 0.0 0.00 0.00 0.00 87 1013.7
20260502070110 61 2 0.0 2.0 0.00 0.00 0.00 88 1013.7
20260502070104 61 2 0.0 0.0 0.00 0.00 0.00 88 1013.7
20260502065722 61 2 0.0 2.0 0.00 0.00 0.00 88 1013.6
20260502065223 61 2 0.0 2.0 0.00 0.00 0.00 88 1013.7
20260502064103 61 2 0.0 0.0 0.00 0.00 0.00 88 1013.7
20260502063604 60 2 0.0 0.0 0.00 0.00 0.00 88 1013.6
20260502063109 60 2 0.0 0.0 0.00 0.00 0.00 88 1013.5
20260502063103 60 2 0.0 0.0 0.00 0.00 0.00 88 1013.5
20260502062105 60 2 0.0 0.0 0.00 0.00 0.00 88 1013.6
20260502061605 60 2 0.0 0.0 0.00 0.00 0.00 88 1013.6
20260502061103 60 2 0.0 0.0 0.00 0.00 0.00 88 1013.6
20260502060602 60 2 0.0 0.0 0.00 0.00 0.00 88 1013.6
20260502060104 60 2 0.0 0.0 0.00 0.00 0.00 88 1013.7
20260502055603 60 2 0.0 0.0 0.00 0.00 0.00 88 1013.7
20260502055102 60 2 0.0 1.0 0.00 0.00 0.00 88 1013.6
20260502054603 60 2 0.0 1.0 0.00 0.00 0.00 88 1013.6
20260502054102 60 2 0.0 0.0 0.00 0.00 0.00 87 1013.7
20260502053608 60 3 0.0 0.0 0.00 0.00 0.00 87 1013.7
20260502053603 60 2 0.0 0.0 0.00 0.00 0.00 87 1013.6
20260502053102 60 3 0.0 0.0 0.00 0.00 0.00 87 1013.7
20260502052102 60 3 0.0 1.0 0.00 0.00 0.00 87 1013.6
20260502051603 60 2 0.0 1.0 0.00 0.00 0.00 87 1013.7
20260502051103 60 2 0.0 0.0 0.00 0.00 0.00 87 1013.6
20260502050601 60 3 0.0 0.0 0.00 0.00 0.00 87 1013.7
20260502050108 60 2 0.0 1.0 0.00 0.00 0.00 86 1013.6
20260502045603 60 3 0.0 1.0 0.00 0.00 0.00 86 1013.6
20260502044603 60 2 0.0 0.0 0.00 0.00 0.00 86 1013.7
20260502044107 61 2 0.0 3.0 0.00 0.00 0.00 86 1013.6
20260502044103 60 2 0.0 2.0 0.00 0.00 0.00 86 1013.7
20260502043721 61 2 1.0 3.0 0.00 0.00 0.00 86 1013.5
20260502042607 61 2 1.0 4.0 0.00 0.00 0.00 86 1013.4
20260502042603 61 2 1.0 3.0 0.00 0.00 0.00 86 1013.5
20260502041603 61 1 1.0 4.0 0.00 0.00 0.00 86 1013.4
20260502041101 61 1 1.0 3.0 0.00 0.00 0.00 85 1013.3
20260502040602 61 1 1.0 3.0 0.00 0.00 0.00 85 1013.3
20260502040107 61 1 0.0 2.0 0.00 0.00 0.00 85 1013.1
20260502035059 61 1 0.0 2.0 0.00 0.00 0.00 85 1013.1
20260502034601 61 0 0.0 3.0 0.00 0.00 0.00 84 1013.0
20260502034100 62 1 0.0 3.0 0.00 0.00 0.00 84 1012.9
20260502033559 62 0 0.0 2.0 0.00 0.00 0.00 84 1012.9
20260502033105 62 359 1.0 3.0 0.00 0.00 0.00 84 1013.0
20260502033100 62 0 1.0 3.0 0.00 0.00 0.00 84 1013.0
20260502032720 62 352 1.0 4.0 0.00 0.00 0.00 83 1012.8
20260502032059 62 355 1.0 4.0 0.00 0.00 0.00 83 1012.9
20260502031058 62 344 0.0 3.0 0.00 0.00 0.00 83 1012.8
20260502030559 62 342 0.0 3.0 0.00 0.00 0.00 83 1012.9
20260502030107 63 331 1.0 4.0 0.00 0.00 0.00 82 1012.8
20260502030058 62 338 0.0 3.0 0.00 0.00 0.00 83 1012.9
20260502025559 62 341 1.0 3.0 0.00 0.00 0.00 82 1012.9
20260502025059 63 342 1.0 4.0 0.00 0.00 0.00 82 1012.9
20260502024558 63 29 2.0 4.0 0.00 0.00 0.00 82 1012.8
20260502024219 63 6 2.0 7.0 0.00 0.00 0.00 81 1012.6
20260502023559 63 348 1.0 4.0 0.00 0.00 0.00 81 1012.7
20260502023216 64 335 2.0 9.0 0.00 0.00 0.00 80 1012.6
20260502022055 64 13 2.0 9.0 0.00 0.00 0.00 80 1012.6
20260502021555 64 331 3.0 8.0 0.00 0.00 0.00 79 1012.6
20260502021055 64 29 3.0 9.0 0.00 0.00 0.00 79 1012.6
20260502020601 65 9 4.0 11.0 0.00 0.00 0.00 77 1012.3
20260502020556 65 338 3.0 9.0 0.00 0.00 0.00 78 1012.4
20260502015557 66 1 4.0 11.0 0.00 0.00 0.00 76 1012.1
20260502015055 66 334 3.0 8.0 0.00 0.00 0.00 76 1012.1
20260502014555 67 321 3.0 9.0 0.00 0.00 0.00 75 1011.9
20260502014055 67 338 4.0 9.0 0.00 0.00 0.00 74 1012.0
20260502013555 68 347 4.0 9.0 0.00 0.00 0.00 73 1012.0
20260502013053 68 326 4.0 8.0 0.00 0.00 0.00 72 1011.8
20260502012553 69 294 3.0 8.0 0.00 0.00 0.00 71 1011.8
20260502012054 69 349 4.0 9.0 0.00 0.00 0.00 71 1011.6
20260502011553 69 357 4.0 9.0 0.00 0.00 0.00 71 1011.7
20260502011053 70 351 4.0 10.0 0.00 0.00 0.00 70 1011.7
20260502010553 70 12 5.0 12.0 0.00 0.00 0.00 69 1011.6
20260502010054 71 345 4.0 12.0 0.00 0.00 0.00 68 1011.6
20260502005552 71 314 3.0 9.0 0.00 0.00 0.00 68 1011.5
20260502005054 72 356 4.0 9.0 0.00 0.00 0.00 67 1011.4
20260502005050 72 311 4.0 9.0 0.00 0.00 0.00 68 1011.5
20260502004054 73 349 4.0 8.0 0.00 0.00 0.00 66 1011.5
20260502004050 72 337 4.0 9.0 0.00 0.00 0.00 66 1011.5
20260502003047 73 303 4.0 10.0 0.00 0.00 0.00 66 1011.4
20260502002547 73 320 4.0 10.0 0.00 0.00 0.00 65 1011.6
20260502002048 73 350 4.0 8.0 0.00 0.00 0.00 65 1011.5
20260502001548 74 353 4.0 9.0 0.00 0.00 0.00 65 1011.5
20260502001052 74 321 4.0 9.0 0.00 0.00 0.00 63 1011.4
20260502001047 74 334 4.0 9.0 0.00 0.00 0.00 64 1011.5
20260502000546 75 343 4.0 8.0 0.00 0.00 0.00 63 1011.3
20260501235545 75 22 4.0 9.0 0.00 0.00 0.00 62 1011.4
20260501235050 75 321 3.0 9.0 0.00 0.00 0.00 63 1011.3
20260501235045 75 14 3.0 9.0 0.00 0.00 0.00 63 1011.3